Вернуться в каталог

STARLINK-5998

АктивенСвязьVLEO
NORAD 56468·PAYLOAD·🇺🇸 United States

Запущен May 10, 2023 с Vandenberg Space Force Base

Loading…

Ближайшие Пролёты (ближайшие 24 часа)

TLE

СвежийSource: CelesTrak SupGP

Эпоха: Sep 14, 2026, 22:07 UTC

1 56468C 23064W   26257.92201389 -.00031155  00000+0 -26109-2 0  2573
2 56468  70.0027  27.1508 0003152 273.2361 163.0705 14.98346127    13

Отслеживайте STARLINK-5998 в реальном времени с AllMySat

Download on the App Store